Weather History for Paducah, KY

Change the Weather History Date:

Wednesday, September 19, 2012

  Actual Average Record
Temperature  
Mean Temperature 58 °F 69 °F  
Max Temperature 74 °F 81 °F 97 °F (1954)
Min Temperature 42 °F 56 °F 41 °F (1973)
Degree Days  
Heating Degree Days 7 1  
Month to date heating degree days 13 7  
Since 1 July heating degree days 13 8  
Cooling Degree Days 0 5  
Month to date cooling degree days 141 145  
Year to date cooling degree days 1922 1458  
Growing Degree Days 8 (Base 50)    
Moisture  
Dew Point 42 °F    
Average Humidity 63    
Maximum Humidity 96    
Minimum Humidity 29    
Precipitation  
Precipitation 0.00 in 0.13 in 1.20 in (1970)
Month to date precipitation 3.74 2.29  
Year to date precipitation 19.86 34.77  
Snow  
Snow 0.00 in 0.00 in - ()
Month to date snowfall 0.0 0.0  
Since 1 July snowfall 0.0 0.0  
Since 1 September snowfall 0.0 0.0  
Snow Depth 0.00 in    
Sea Level Pressure  
Sea Level Pressure 30.11 in    
Wind  
Wind Speed 3 mph (South)    
Max Wind Speed 10 mph    
Max Gust Speed 13 mph    
Visibility 10 miles    
Events      
T = Trace of Precipitation, MM = Missing Value Source: NWS Daily Summary

Daily Weather History Graph

Daily Weather History Graph

Search for Another Location

Airport:

Trip Planner

Search our weather history database for the weather conditions in past years. The results will help you decide how hot, cold, wet, or windy it might be!

Date:

Astronomy

Sep. 19, 2012 Rise Set
Actual Time 6:40 AM CDT 6:55 PM CDT
Civil Twilight 6:14 AM CDT 7:21 PM CDT
Nautical Twilight 5:44 AM CDT 7:52 PM CDT
Astronomical Twilight 5:13 AM CDT 8:22 PM CDT
Moon 10:43 AM CDT (9/19) 9:12 PM CDT (9/19)
Length of Visible Light 13h 06m
Length of Day
12h 14m
Waxing Crescent, 17% of the Moon is Illuminated
Sep 19
Waxing Crescent
Sep 22
First Quarter
Sep 29
Full
Oct 8
Last Quarter
Oct 15
New

Hourly Weather History & Observations

Time (CDT) Temp. Windchill Dew Point Humidity Pressure Visibility Wind Dir Wind Speed Gust Speed Precip Events Conditions
12:53 AM 48.0 °F - 45.0 °F 89% 30.09 in 10.0 mi Calm Calm - N/A   Clear
1:53 AM 44.1 °F 42.5 °F 43.0 °F 96% 30.09 in 10.0 mi SW 3.5 mph - N/A   Clear
2:53 AM 46.0 °F - 44.1 °F 93% 30.09 in 10.0 mi Calm Calm - N/A   Clear
3:53 AM 44.1 °F - 43.0 °F 96% 30.09 in 10.0 mi Calm Calm - N/A   Clear
4:53 AM 44.1 °F - 42.1 °F 93% 30.10 in 10.0 mi Calm Calm - N/A   Clear
5:53 AM 44.1 °F - 42.1 °F 93% 30.13 in 10.0 mi Calm Calm - N/A   Clear
6:53 AM 42.1 °F - 41.0 °F 96% 30.15 in 10.0 mi Calm Calm - N/A   Clear
7:53 AM 50.0 °F - 48.0 °F 93% 30.16 in 9.0 mi Calm Calm - N/A   Clear
8:53 AM 57.9 °F - 46.9 °F 67% 30.17 in 10.0 mi East 3.5 mph - N/A   Clear
9:53 AM 63.0 °F - 44.1 °F 50% 30.18 in 10.0 mi Variable 3.5 mph - N/A   Clear
10:53 AM 64.9 °F - 36.0 °F 34% 30.18 in 10.0 mi South 8.1 mph - N/A   Clear
11:53 AM 68.0 °F - 37.9 °F 33% 30.16 in 10.0 mi Calm Calm - N/A   Clear
12:53 PM 70.0 °F - 39.0 °F 32% 30.15 in 10.0 mi Variable 6.9 mph - N/A   Clear
1:53 PM 71.1 °F - 39.0 °F 31% 30.12 in 10.0 mi Variable 3.5 mph - N/A   Clear
2:53 PM 72.0 °F - 37.9 °F 29% 30.09 in 10.0 mi Calm Calm - N/A   Clear
3:53 PM 72.0 °F - 37.0 °F 28% 30.08 in 10.0 mi South 4.6 mph - N/A   Clear
4:53 PM 73.0 °F - 39.0 °F 29% 30.06 in 10.0 mi South 6.9 mph - N/A   Clear
5:53 PM 71.1 °F - 39.0 °F 31% 30.06 in 10.0 mi SSW 5.8 mph - N/A   Clear
6:53 PM 69.1 °F - 39.0 °F 33% 30.05 in 10.0 mi South 3.5 mph - N/A   Clear
7:53 PM 57.2 °F - 46.4 °F 67% 30.05 in 10.0 mi SSE 3.5 mph - N/A   Clear
8:53 PM 57.0 °F - 45.0 °F 64% 30.06 in 10.0 mi South 4.6 mph - N/A   Clear
9:53 PM 53.1 °F - 45.0 °F 74% 30.06 in 10.0 mi SSE 4.6 mph - N/A   Clear
10:53 PM 57.9 °F - 42.1 °F 56% 30.07 in 10.0 mi South 5.8 mph - N/A   Clear
11:53 PM 57.9 °F - 42.1 °F 56% 30.06 in 10.0 mi South 6.9 mph - N/A   Clear